EW1953 Weather Reports


time (UTC)temp
C
wind
direction
speed
KPH
gust
KPH
rain 1hr
cm
rain 24hr
cm
rain mn
cm
humidity
%
barometer
mb
20260507070017 11 0.0 0.0 0.00 0.05 0.00 86 1015.1
20260507065024 11 0.0 0.0 0.00 0.08 0.00 87 1015.0
20260507064020 10 0.0 0.0 0.00 0.08 0.00 89 1014.9
20260507063026 10 0.0 0.0 0.00 0.08 0.00 91 1014.9
20260507062018 10 0.0 0.0 0.00 0.10 0.00 92 1014.8
20260507061029 10 0.0 0.0 0.00 0.10 0.00 93 1014.7
20260507060020 9 0.0 0.0 0.00 0.10 0.00 93 1014.6
20260507055018 9 0.0 0.0 0.00 0.13 0.00 93 1014.5
20260507054043 9 0.0 0.0 0.00 0.13 0.00 93 1014.4
20260507053022 9 0.0 0.0 0.00 0.15 0.00 93 1014.4
20260507052023 8 0.0 0.0 0.00 0.15 0.00 93 1014.3
20260507051020 8 0.0 0.0 0.00 0.18 0.00 93 1014.2
20260507050039 8 0.0 0.0 0.00 0.18 0.00 93 1014.0
20260507045020 8 0.0 0.0 0.00 0.18 0.00 93 1013.8
20260507044033 8 0.0 0.0 0.00 0.18 0.00 93 1013.6
20260507043019 8 0.0 0.0 0.00 0.18 0.00 93 1013.6
20260507042020 8 0.0 0.0 0.00 0.18 0.00 93 1013.5
20260507041019 8 0.0 0.0 0.00 0.20 0.00 93 1013.4
20260507040019 8 0.0 0.0 0.00 0.20 0.00 93 1013.3
20260507035017 8 0.0 0.0 0.00 0.20 0.00 93 1013.2
20260507034024 8 0.0 0.0 0.00 0.20 0.00 93 1013.2
20260507033042 8 0.0 0.0 0.00 0.20 0.00 93 1013.2
20260507032031 8 0.0 0.0 0.00 0.23 0.00 93 1013.2
20260507031042 8 0.0 0.0 0.00 0.23 0.00 93 1013.1
20260507030040 8 0.0 0.0 0.00 0.23 0.00 93 1013.1
20260507025021 8 0.0 0.0 0.00 0.23 0.00 93 1013.1
20260507024017 8 0.0 0.0 0.00 0.25 0.00 93 1013.1
20260507023059 8 0.0 0.0 0.00 0.28 0.00 93 1013.0
20260507022045 8 0.0 0.0 0.00 0.28 0.00 93 1012.9
20260507021016 8 0.0 0.0 0.00 0.30 0.00 93 1012.8
20260507020044 8 0.0 0.0 0.00 0.30 0.00 93 1012.8
20260507015025 8 0.0 0.0 0.00 0.33 0.00 93 1012.8
20260507014016 8 0.0 0.0 0.00 0.33 0.00 93 1012.8
20260507013024 8 0.0 0.0 0.00 0.33 0.00 93 1012.9
20260507012016 8 0.0 0.0 0.00 0.38 0.00 93 1012.9
20260507011547 8 0.0 0.0 0.00 0.38 0.00 93 1012.8
20260507010529 8 0.0 0.0 0.00 0.43 0.00 93 1012.7
20260507005524 8 0.0 0.0 0.00 0.43 0.00 93 1012.8
20260507004521 8 0.0 0.0 0.00 0.43 0.00 93 1012.7
20260507003518 8 0.0 0.0 0.00 0.46 0.00 92 1012.7
20260507002523 8 0.0 0.0 0.00 0.48 0.00 92 1012.7
20260507001522 8 0.0 0.0 0.00 0.51 0.00 92 1012.7
20260507000527 -17 0.0 0.0 0.00 0.53 0.00
20260507000020 8 0.0 0.0 0.00 0.53 0.00 92 1012.7
20260506235019 8 0.0 0.0 0.00 0.58 0.00 92 1012.6
20260506234022 8 0.0 0.0 0.00 0.61 0.00 92 1012.6
20260506233019 8 0.0 0.0 0.00 0.61 0.00 92 1012.5
20260506232022 8 0.0 0.0 0.00 0.64 0.00 92 1012.4
20260506231021 9 0.0 0.0 0.00 0.66 0.00 92 1012.4
20260506230016 9 0.0 0.0 0.00 0.71 0.00 93 1012.3
20260506225021 9 0.0 0.0 0.00 0.71 0.00 93 1012.2
20260506224019 9 0.0 0.0 0.00 0.76 0.00 92 1012.1
20260506223020 9 0.0 0.0 0.00 0.79 0.00 92 1012.1
20260506222024 9 0.0 0.0 0.00 0.81 0.00 92 1012.0
20260506221042 9 0.0 0.0 0.00 0.86 0.00 92 1011.9
20260506220020 9 0.0 0.0 0.00 0.86 0.00 92 1011.8
20260506215038 9 0.0 0.0 0.00 0.89 0.89 92 1011.8
20260506214035 9 0.0 0.0 0.00 0.89 0.89 92 1011.7
20260506213019 9 0.0 0.0 0.00 0.91 0.89 92 1011.6
20260506212045 9 0.0 0.0 0.00 0.91 0.89 92 1011.6
20260506211021 9 0.0 0.0 0.00 0.94 0.89 91 1011.5
20260506210026 9 0.0 0.0 0.00 0.99 0.89 91 1011.4
20260506205018 9 0.0 0.0 0.00 0.99 0.89 90 1011.3
20260506204021 10 0.0 0.0 0.00 1.04 0.89 90 1011.3
20260506203023 10 0.0 0.0 0.00 1.07 0.89 89 1011.3
20260506202023 10 0.0 0.0 0.00 1.09 0.89 88 1011.3
20260506201021 10 0.0 0.0 0.00 1.14 0.89 87 1011.2
20260506200016 10 0.0 0.0 0.00 1.17 0.89 86 1011.1
20260506195020 10 0.0 0.0 0.00 1.17 0.89 85 1010.9
20260506194019 10 0.0 0.0 0.00 1.22 0.89 85 1010.8
20260506193019 10 0.0 0.0 0.00 1.24 0.89 84 1010.7
20260506192042 10 0.0 0.0 0.00 1.27 0.89 82 1010.6
20260506191023 10 0.0 0.0 0.00 1.30 0.89 81 1010.6
20260506190024 11 0.0 0.0 0.00 1.32 0.89 81 1010.4
20260506185024 11 0.0 0.0 0.00 1.35 0.89 79 1010.4
20260506184100 11 0.0 0.0 0.00 1.37 0.89 78 1010.3
20260506183017 11 0.0 0.0 0.00 1.37 0.89 77 1010.2
20260506182040 12 0.0 0.0 0.00 1.40 0.89 77 1010.1
20260506181022 12 0.0 0.0 0.00 1.40 0.89 76 1009.9
20260506180055 12 0.0 0.0 0.00 1.42 0.89 78 1009.8
20260506175020 12 0.0 0.0 0.00 1.45 0.89 78 1009.7
20260506174023 12 0.0 0.0 0.00 1.45 0.89 79 1009.5
20260506173022 12 0.0 0.0 0.00 1.45 0.89 80 1009.4
20260506172046 12 0.0 0.0 0.00 1.45 0.89 79 1009.3
20260506171055 12 0.0 0.0 0.00 1.45 0.89 79 1009.2
20260506170019 12 0.0 0.0 0.00 1.45 0.89 78 1009.2
20260506165026 12 0.0 0.0 0.00 1.45 0.89 78 1009.1
20260506164043 12 0.0 0.0 0.00 1.45 0.89 78 1009.0
20260506163023 12 0.0 0.0 0.00 1.45 0.89 76 1009.0
20260506162024 13 0.0 0.0 0.00 1.45 0.89 75 1009.1
20260506161020 13 0.0 0.0 0.00 1.45 0.89 76 1009.1
20260506160018 13 0.0 0.0 0.00 1.45 0.89 74 1009.1
20260506155018 13 0.0 0.0 0.00 1.45 0.89 74 1008.9
20260506154021 14 0.0 0.0 0.00 1.45 0.89 75 1008.9
20260506153017 14 0.0 0.0 0.00 1.45 0.89 76 1008.9
20260506152020 14 0.0 0.0 0.00 1.45 0.89 77 1008.9
20260506151017 14 0.0 0.0 0.00 1.45 0.89 81 1008.8
20260506150025 13 0.0 0.0 0.00 1.45 0.89 84 1008.7
20260506145026 13 0.0 0.0 0.00 1.45 0.89 84 1008.8
20260506144038 13 0.0 0.0 0.00 1.45 0.89 86 1008.7
20260506143018 13 0.0 0.0 0.00 1.45 0.89 88 1008.8
20260506142041 13 0.0 0.0 0.00 1.45 0.89 87 1008.8
20260506141118 12 0.0 0.0 0.00 1.45 0.89 85 1008.8
20260506140021 12 0.0 0.0 0.00 1.45 0.89 88 1008.8
20260506135024 12 0.0 0.0 0.00 1.45 0.89 90 1008.8
20260506134019 12 0.0 0.0 0.00 1.45 0.89 90 1008.8
20260506133022 12 0.0 0.0 0.00 1.45 0.89 90 1008.8
20260506132022 12 0.0 0.0 0.00 1.45 0.89 90 1008.8
20260506131045 12 0.0 0.0 0.00 1.45 0.89 92 1008.7
20260506130019 12 0.0 0.0 0.00 1.45 0.89 93 1008.7
20260506125017 11 0.0 0.0 0.00 1.45 0.89 93 1008.6
20260506124038 11 0.0 0.0 0.00 1.45 0.89 92 1008.5
20260506123026 11 0.0 0.0 0.03 1.45 0.89 92 1008.5
20260506122018 11 0.0 0.0 0.03 1.45 0.89 92 1008.5
20260506121022 11 0.0 0.0 0.03 1.45 0.89 92 1008.5
20260506120022 11 0.0 0.0 0.03 1.45 0.89 92 1008.5
20260506115024 11 0.0 0.0 0.03 1.45 0.89 90 1008.5
20260506114020 11 0.0 0.0 0.03 1.45 0.89 88 1008.5
20260506113019 11 0.0 0.0 0.00 1.45 0.86 88 1008.5
20260506112018 11 0.0 0.0 0.00 1.45 0.86 88 1008.6
20260506111037 11 0.0 0.0 0.00 1.45 0.86 88 1008.6
20260506110027 10 0.0 0.0 0.00 1.45 0.86 88 1008.6
20260506105035 10 0.0 0.0 0.00 1.45 0.86 88 1008.6
20260506104016 10 0.0 0.0 0.00 1.45 0.86 88 1008.7
20260506103017 10 0.0 0.0 0.00 1.45 0.86 88 1008.7
20260506102022 10 0.0 0.0 0.00 1.45 0.86 88 1008.6
20260506101018 10 0.0 0.0 0.00 1.45 0.86 88 1008.5
20260506100038 10 0.0 0.0 0.00 1.45 0.86 88 1008.4
20260506095027 10 0.0 0.0 0.03 1.45 0.86 88 1008.3
20260506094026 10 0.0 0.0 0.03 1.45 0.86 88 1008.3
20260506093107 9 0.0 0.0 0.03 1.45 0.86 88 1008.2
20260506092019 9 0.0 0.0 0.03 1.45 0.86 88 1008.2
20260506091021 9 0.0 0.0 0.03 1.45 0.86 88 1008.1
20260506090026 9 0.0 0.0 0.03 1.45 0.86 88 1008.0
20260506085022 9 0.0 0.0 0.00 1.45 0.84 88 1007.9
20260506084018 9 0.0 0.0 0.00 1.45 0.84 88 1007.9
20260506083021 9 0.0 0.0 0.00 1.45 0.84 88 1007.8
20260506082017 9 0.0 0.0 0.03 1.47 0.84 88 1007.7
20260506081029 9 0.0 0.0 0.03 1.47 0.84 88 1007.7
20260506073018 9 0.0 0.0 0.05 1.47 0.84 88 1007.4
20260506072016 9 0.0 0.0 0.05 1.45 0.81 88 1007.3
20260506071021 8 0.0 0.0 0.05 1.45 0.81 88 1007.3